Weather History for Aberdeen, SD

Change the Weather History Date:

Tuesday, September 17, 2013

  Actual Average Record
Temperature  
Mean Temperature 59 °F 58 °F  
Max Temperature 67 °F 72 °F 97 °F (1955)
Min Temperature 50 °F 45 °F 28 °F (1903)
Degree Days  
Heating Degree Days 6 8  
Month to date heating degree days 51 89  
Since 1 July heating degree days 102 140  
Cooling Degree Days 0 1  
Month to date cooling degree days 64 33  
Year to date cooling degree days 553 516  
Growing Degree Days 8 (Base 50)    
Moisture  
Dew Point 55 °F    
Average Humidity 83    
Maximum Humidity 93    
Minimum Humidity 73    
Precipitation  
Precipitation 0.00 in 0.07 in 2.50 in (1967)
Month to date precipitation 0.68 1.27  
Year to date precipitation 14.44 17.56  
Sea Level Pressure  
Sea Level Pressure 29.89 in    
Wind  
Wind Speed 13 mph (SSE)    
Max Wind Speed 22 mph    
Max Gust Speed 28 mph    
Visibility 10 miles    
Events      
T = Trace of Precipitation, MM = Missing Value Source: NWS Daily Summary

Daily Weather History Graph

Daily Weather History Graph

Search for Another Location

Airport:

Trip Planner

Search our weather history database for the weather conditions in past years. The results will help you decide how hot, cold, wet, or windy it might be!

Date:

Astronomy

Sep. 17, 2013 Rise Set
Actual Time 7:14 AM CDT 7:40 PM CDT
Civil Twilight 6:45 AM CDT 8:09 PM CDT
Nautical Twilight 6:10 AM CDT 8:44 PM CDT
Astronomical Twilight 5:33 AM CDT 9:20 PM CDT
Moon 6:30 PM CDT (9/17) 5:07 AM CDT (9/17)
Length of Visible Light 13h 24m
Length of Day
12h 25m
Waxing Gibbous, 96% of the Moon is Illuminated
Sep 17
Waxing Gibbous
Sep 19
Full
Sep 26
Last Quarter
Oct 4
New
Oct 11
First Quarter

Hourly Weather History & Observations

Time (CDT) Temp. Dew Point Humidity Pressure Visibility Wind Dir Wind Speed Gust Speed Precip Events Conditions
12:53 AM 52.0 °F 48.0 °F 86% 30.08 in 10.0 mi SSE 9.2 mph - N/A   Clear
1:53 AM 50.0 °F 48.0 °F 93% 30.06 in 10.0 mi SSE 8.1 mph - N/A   Clear
2:53 AM 51.1 °F 48.0 °F 89% 30.04 in 10.0 mi SSE 8.1 mph - N/A   Clear
3:37 AM 53.6 °F 50.0 °F 88% 30.02 in 10.0 mi South 10.4 mph - N/A   Mostly Cloudy
3:53 AM 54.0 °F 50.0 °F 86% 30.01 in 10.0 mi South 12.7 mph - N/A   Overcast
4:53 AM 55.9 °F 51.1 °F 84% 29.99 in 10.0 mi SSE 11.5 mph - N/A   Overcast
5:53 AM 57.0 °F 52.0 °F 83% 29.97 in 10.0 mi South 12.7 mph - N/A   Overcast
6:49 AM 57.2 °F 53.6 °F 88% 29.96 in 10.0 mi South 13.8 mph 20.7 mph N/A   Overcast
6:53 AM 57.0 °F 53.1 °F 87% 29.96 in 10.0 mi South 15.0 mph - N/A   Overcast
7:32 AM 57.2 °F 53.6 °F 88% 29.96 in 10.0 mi South 13.8 mph - N/A   Overcast
7:53 AM 57.9 °F 54.0 °F 87% 29.96 in 10.0 mi South 16.1 mph 23.0 mph N/A   Overcast
8:53 AM 57.9 °F 54.0 °F 87% 29.95 in 10.0 mi South 15.0 mph 21.9 mph N/A   Overcast
9:16 AM 59.0 °F 53.6 °F 82% 29.94 in 10.0 mi South 16.1 mph 23.0 mph N/A   Overcast
9:53 AM 59.0 °F 54.0 °F 83% 29.94 in 10.0 mi SSE 18.4 mph - N/A   Overcast
10:48 AM 60.8 °F 55.4 °F 82% 29.92 in 10.0 mi South 19.6 mph 24.2 mph N/A   Overcast
10:53 AM 60.1 °F 55.0 °F 83% 29.93 in 10.0 mi South 15.0 mph 24.2 mph N/A   Overcast
11:19 AM 60.8 °F 55.4 °F 82% 29.92 in 10.0 mi South 20.7 mph 25.3 mph N/A   Overcast
11:53 AM 61.0 °F 55.0 °F 81% 29.92 in 10.0 mi South 18.4 mph 25.3 mph N/A   Overcast
12:53 PM 62.1 °F 55.9 °F 80% 29.90 in 10.0 mi South 17.3 mph 25.3 mph N/A   Overcast
1:53 PM 64.0 °F 55.9 °F 75% 29.87 in 10.0 mi South 19.6 mph 25.3 mph N/A   Overcast
2:53 PM 64.9 °F 57.0 °F 75% 29.85 in 10.0 mi South 17.3 mph 27.6 mph N/A   Overcast
3:53 PM 66.9 °F 57.0 °F 70% 29.83 in 10.0 mi South 12.7 mph 23.0 mph N/A   Overcast
4:53 PM 66.0 °F 57.9 °F 75% 29.81 in 10.0 mi South 12.7 mph 20.7 mph N/A   Overcast
5:53 PM 66.0 °F 57.9 °F 75% 29.80 in 10.0 mi South 8.1 mph - N/A   Overcast
6:53 PM 66.0 °F 57.9 °F 75% 29.79 in 10.0 mi SSE 10.4 mph - N/A   Overcast
7:53 PM 64.9 °F 57.9 °F 78% 29.77 in 10.0 mi SSE 13.8 mph - N/A   Overcast
8:00 PM 64.4 °F 57.2 °F 77% 29.78 in 10.0 mi SSE 10.4 mph - N/A   Overcast
8:53 PM 64.0 °F 59.0 °F 84% 29.78 in 10.0 mi SE 10.4 mph - N/A   Overcast
9:53 PM 63.0 °F 59.0 °F 87% 29.79 in 10.0 mi SSE 11.5 mph - N/A   Overcast
10:25 PM 62.6 °F 59.0 °F 88% 29.79 in 10.0 mi SE 8.1 mph - N/A   Overcast
10:32 PM 62.6 °F 59.0 °F 88% 29.79 in 10.0 mi SE 6.9 mph - N/A   Overcast
10:44 PM 62.6 °F 59.0 °F 88% 29.78 in 10.0 mi SE 8.1 mph - N/A   Overcast
10:53 PM 62.1 °F 59.0 °F 90% 29.77 in 10.0 mi SE 8.1 mph - N/A   Overcast
11:16 PM 62.6 °F 59.0 °F 88% 29.77 in 9.0 mi SE 11.5 mph - N/A   Overcast
11:48 PM 62.6 °F 60.8 °F 94% 29.76 in 9.0 mi SE 8.1 mph - N/A   Overcast
11:53 PM 63.0 °F 60.1 °F 90% 29.76 in 9.0 mi SE 10.4 mph - N/A   Overcast